Вернуться в каталог

FENGYUN 1C DEB

LostSSO
NORAD 37475·DEBRIS·🇨🇳 China

Запущен May 10, 1999 с Taiyuan Satellite Launch Center

Loading…

Ближайшие Пролёты (ближайшие 24 часа)

TLE

УстаревшееSource: Space-Track

Эпоха: Jan 30, 2023, 08:03 UTC

1 37475U 99025EJV 23030.33577359  .00004946  00000-0  18994-2 0  9997
2 37475  98.9523 169.0322 0108420 312.3565  46.8473 14.27733820497365

Отслеживайте FENGYUN 1C DEB в реальном времени с AllMySat

Download on the App Store